This is the latest recevied weather packets stored in our database for station/object K1RFS. If no packets are shown the sender has not sent any weather packets the latest 10 day(s).
| Time | Temp. | Humidity | Pressure | Rain* | Wind** | Luminosity | Snow |
|---|---|---|---|---|---|---|---|
| 1787846349 | 28.33° C | 33% | 1007.1 hPa | 0 mm | - | 33 W/m² | - |
| 1787846045 | 28.33° C | 33% | 1007.1 hPa | 0 mm | - | 32 W/m² | - |
| 1787845741 | 28.33° C | 35% | 1007.2 hPa | 0 mm | - | 32 W/m² | - |
| 1787845441 | 27.78° C | 36% | 1006.9 hPa | 0 mm | - | 32 W/m² | - |
| 1787845137 | 27.22° C | 37% | 1007.1 hPa | 0 mm | - | 33 W/m² | - |
| 1787844832 | 27.22° C | 36% | 1007.1 hPa | 0 mm | - | 31 W/m² | - |
| 1787844531 | 27.22° C | 35% | 1006.8 hPa | 0 mm | - | 30 W/m² | - |
| 1787844227 | 26.67° C | 37% | 1007 hPa | 0 mm | - | 29 W/m² | - |
| 1787843925 | 26.67° C | 38% | 1007 hPa | 0 mm | - | 29 W/m² | - |
| 1787843620 | 26.11° C | 36% | 1007.1 hPa | 0 mm | - | 28 W/m² | - |
| 1787843317 | 26.11° C | 39% | 1007.2 hPa | 0 mm | - | 28 W/m² | - |
| 1787842712 | 25.56° C | 40% | 1007.1 hPa | 0 mm | - | 27 W/m² | - |
| 1787842407 | 25.56° C | 40% | 1007 hPa | 0 mm | - | 27 W/m² | - |
| 1787842107 | 25° C | 40% | 1007 hPa | 0 mm | - | 26 W/m² | - |
| 1787841802 | 24.44° C | 41% | 1007.1 hPa | 0 mm | - | 26 W/m² | - |
| 1787841498 | 23.89° C | 42% | 1007.2 hPa | 0 mm | - | 25 W/m² | - |
| 1787841197 | 22.78° C | 45% | 1007.2 hPa | 0 mm | - | 24 W/m² | - |
| 1787840892 | 22.78° C | 46% | 1007 hPa | 0 mm | - | 24 W/m² | - |
| 1787840587 | 22.22° C | 46% | 1007.2 hPa | 0 mm | - | 23 W/m² | - |
| 1787840283 | 21.67° C | 48% | 1007.3 hPa | 0 mm | - | 22 W/m² | - |
| 1787839982 | 21.11° C | 51% | 1007 hPa | 0 mm | - | 22 W/m² | - |
| 1787839677 | 20.56° C | 50% | 1007.1 hPa | 0 mm | - | 21 W/m² | - |
| 1787839372 | 20.56° C | 51% | 1007 hPa | 0 mm | - | 21 W/m² | - |
| 1787839071 | 20° C | 51% | 1006.9 hPa | 0 mm | - | 20 W/m² | - |
| 1787838770 | 20° C | 49% | 1007.1 hPa | 0 mm | - | 19 W/m² | - |
* Rain latest hour (hover to see other rain measurements)
** Current wind speed in m/s (hover to see current wind gust speed)